When you browse on this site, cookies collect data to enhance your experience and personalize the content and advertising you see.
Visit our Privacy Policy to learn more. By continuing to use the site, you agree to this use of cookies and data.
  • In Latvia
  • List of Countries
  • For 7 days
  • Water Temperature
  • Satellite Maps
  • Weather Map
  • Weather Widgets
  • user-avatar
    Login

    Hourly Weather University Park

    Today, 26 May, Sunday

    Time Temperature Precipitation Wind Pressure Humidity
    00:00 +28°C° 0 mm 5 mps 748 mmHg 72%
    01:00 +27°C° 0 mm 5 mps 748 mmHg 74%
    02:00 +27°C° 0 mm 5 mps 748 mmHg 77%
    03:00 +26°C° 0 mm 5 mps 748 mmHg 80%
    04:00 +26°C° 0 mm 5 mps 748 mmHg 82%
    05:00 +25°C° 0 mm 5 mps 748 mmHg 84%
    06:00 +25°C° 0 mm 5 mps 748 mmHg 85%
    07:00 +26°C° 0 mm 6 mps 748 mmHg 81%
    08:00 +27°C° 0 mm 6 mps 749 mmHg 76%
    09:00 +27°C° 0 mm 6 mps 749 mmHg 71%
    10:00 +28°C° 0 mm 6 mps 749 mmHg 67%
    11:00 +29°C° 0 mm 5 mps 749 mmHg 63%
    12:00 +30°C° 0 mm 5 mps 749 mmHg 59%
    13:00 +32°C° 0 mm 5 mps 749 mmHg 55%
    14:00 +34°C° 0 mm 5 mps 748 mmHg 51%
    15:00 +35°C° 0 mm 5 mps 748 mmHg 46%
    16:00 +34°C° 0 mm 5 mps 747 mmHg 49%
    17:00 +34°C° 0 mm 5 mps 747 mmHg 51%
    18:00 +33°C° 0 mm 5 mps 746 mmHg 53%
    19:00 +32°C° 0 mm 5 mps 747 mmHg 57%
    20:00 +32°C° 0 mm 5 mps 747 mmHg 60%
    21:00 +30°C° 0 mm 5 mps 747 mmHg 63%
    22:00 +29°C° 0 mm 6 mps 746 mmHg 65%
    23:00 +29°C° 0 mm 7 mps 746 mmHg 67%

    Tomorrow, 27 May, Monday

    Time Temperature Precipitation Wind Pressure Humidity
    00:00 +28°C° 0 mm 8 mps 746 mmHg 69%
    01:00 +28°C° 0 mm 7 mps 745 mmHg 71%
    02:00 +27°C° 0 mm 6 mps 745 mmHg 73%
    03:00 +26°C° 0 mm 5 mps 745 mmHg 75%
    04:00 +26°C° 0 mm 5 mps 746 mmHg 76%
    05:00 +26°C° 0 mm 5 mps 746 mmHg 78%
    06:00 +25°C° 0 mm 5 mps 747 mmHg 79%
    07:00 +26°C° 0.1 mm 5 mps 747 mmHg 77%
    08:00 +26°C° 0.1 mm 5 mps 747 mmHg 75%
    09:00 +26°C° 0.1 mm 5 mps 747 mmHg 73%
    10:00 +28°C° 0 mm 6 mps 746 mmHg 66%
    11:00 +30°C° 0 mm 6 mps 746 mmHg 59%
    12:00 +33°C° 0 mm 7 mps 746 mmHg 52%
    13:00 +33°C° 0 mm 7 mps 745 mmHg 50%
    14:00 +34°C° 0 mm 7 mps 744 mmHg 49%
    15:00 +34°C° 0 mm 7 mps 744 mmHg 48%
    16:00 +34°C° 0 mm 7 mps 743 mmHg 51%
    17:00 +33°C° 0 mm 7 mps 743 mmHg 54%
    18:00 +33°C° 0 mm 6 mps 742 mmHg 56%
    19:00 +32°C° 0 mm 6 mps 743 mmHg 60%
    20:00 +30°C° 0 mm 6 mps 743 mmHg 64%
    21:00 +29°C° 0 mm 6 mps 743 mmHg 67%
    22:00 +29°C° 0 mm 6 mps 743 mmHg 67%
    23:00 +28°C° 0 mm 7 mps 743 mmHg 66%

    Day after tomorrow, 28 May, Tuesday

    Time Temperature Precipitation Wind Pressure Humidity
    00:00 +28°C° 0 mm 7 mps 743 mmHg 65%
    01:00 +27°C° 0 mm 7 mps 742 mmHg 71%
    02:00 +27°C° 0 mm 7 mps 742 mmHg 77%
    03:00 +26°C° 0 mm 7 mps 742 mmHg 82%
    04:00 +26°C° 0.1 mm 7 mps 742 mmHg 81%
    05:00 +26°C° 0.1 mm 6 mps 742 mmHg 80%
    06:00 +27°C° 0.1 mm 6 mps 742 mmHg 80%
    07:00 +27°C° 0.2 mm 6 mps 742 mmHg 78%
    08:00 +27°C° 0.2 mm 6 mps 743 mmHg 76%
    09:00 +28°C° 0.2 mm 6 mps 743 mmHg 74%
    10:00 +29°C° 0.1 mm 7 mps 742 mmHg 67%
    11:00 +32°C° 0.1 mm 8 mps 742 mmHg 61%
    12:00 +34°C° 0.1 mm 8 mps 742 mmHg 54%
    13:00 +34°C° 0 mm 8 mps 741 mmHg 53%
    14:00 +34°C° 0 mm 8 mps 740 mmHg 52%
    15:00 +35°C° 0 mm 8 mps 740 mmHg 51%
    16:00 +34°C° 0 mm 8 mps 739 mmHg 52%
    17:00 +34°C° 0 mm 7 mps 739 mmHg 54%
    18:00 +34°C° 0 mm 7 mps 739 mmHg 56%
    19:00 +33°C° 0 mm 7 mps 739 mmHg 59%
    20:00 +32°C° 0 mm 8 mps 740 mmHg 62%
    21:00 +31°C° 0 mm 8 mps 740 mmHg 65%
    22:00 +31°C° 0 mm 8 mps 740 mmHg 67%
    23:00 +29°C° 0 mm 8 mps 740 mmHg 69%

    29 May, Wednesday

    Time Temperature Precipitation Wind Pressure Humidity
    00:00 +29°C° 0 mm 8 mps 741 mmHg 71%
    01:00 +28°C° 0 mm 7 mps 740 mmHg 74%
    02:00 +27°C° 0 mm 7 mps 740 mmHg 77%
    03:00 +27°C° 0 mm 6 mps 740 mmHg 80%
    04:00 +27°C° 0.1 mm 6 mps 740 mmHg 80%
    05:00 +27°C° 0.1 mm 6 mps 740 mmHg 80%
    06:00 +27°C° 0.1 mm 6 mps 741 mmHg 80%
    07:00 +28°C° 0.1 mm 6 mps 741 mmHg 75%
    08:00 +29°C° 0.1 mm 7 mps 741 mmHg 69%
    09:00 +30°C° 0.1 mm 7 mps 741 mmHg 63%
    10:00 +33°C° 0.1 mm 7 mps 741 mmHg 60%
    11:00 +34°C° 0.1 mm 7 mps 741 mmHg 56%
    12:00 +35°C° 0.1 mm 7 mps 740 mmHg 52%
    13:00 +35°C° 0.1 mm 8 mps 740 mmHg 52%
    14:00 +35°C° 0.1 mm 9 mps 739 mmHg 52%
    15:00 +37°C° 0.1 mm 9 mps 738 mmHg 51%
    16:00 +34°C° 2.6 mm 8 mps 738 mmHg 56%
    17:00 +33°C° 2.6 mm 8 mps 738 mmHg 61%
    18:00 +32°C° 2.6 mm 7 mps 738 mmHg 66%
    19:00 +30°C° 5.4 mm 7 mps 739 mmHg 69%
    20:00 +29°C° 5.4 mm 7 mps 739 mmHg 72%
    21:00 +28°C° 5.4 mm 7 mps 740 mmHg 75%
    22:00 +28°C° 3.5 mm 7 mps 740 mmHg 77%
    23:00 +27°C° 3.5 mm 6 mps 740 mmHg 79%

    30 May, Thursday

    Time Temperature Precipitation Wind Pressure Humidity
    00:00 +27°C° 3.5 mm 6 mps 741 mmHg 82%
    01:00 +27°C° 0.1 mm 5 mps 741 mmHg 83%
    02:00 +26°C° 0.1 mm 5 mps 741 mmHg 84%
    03:00 +26°C° 0.1 mm 4 mps 741 mmHg 85%
    04:00 +26°C° 0.1 mm 3 mps 742 mmHg 85%
    05:00 +26°C° 0.1 mm 3 mps 742 mmHg 85%
    06:00 +26°C° 0.1 mm 2 mps 743 mmHg 86%
    07:00 +27°C° 0 mm 2 mps 743 mmHg 80%
    08:00 +28°C° 0 mm 2 mps 744 mmHg 74%
    09:00 +29°C° 0 mm 1 mps 745 mmHg 68%
    10:00 +31°C° 0 mm 2 mps 745 mmHg 61%
    11:00 +32°C° 0 mm 2 mps 745 mmHg 54%
    12:00 +34°C° 0 mm 3 mps 745 mmHg 47%
    13:00 +35°C° 0 mm 3 mps 745 mmHg 44%
    14:00 +35°C° 0 mm 3 mps 744 mmHg 40%
    15:00 +36°C° 0 mm 4 mps 744 mmHg 37%
    16:00 +35°C° 0 mm 4 mps 744 mmHg 40%
    17:00 +34°C° 0 mm 4 mps 744 mmHg 43%
    18:00 +34°C° 0 mm 4 mps 744 mmHg 46%
    19:00 +32°C° 0 mm 4 mps 745 mmHg 49%
    20:00 +30°C° 0 mm 3 mps 745 mmHg 53%
    21:00 +29°C° 0 mm 3 mps 746 mmHg 57%
    22:00 +28°C° 0 mm 3 mps 746 mmHg 59%
    23:00 +28°C° 0 mm 3 mps 746 mmHg 62%

    31 May, Friday

    Time Temperature Precipitation Wind Pressure Humidity
    00:00 +27°C° 0 mm 3 mps 747 mmHg 64%
    01:00 +27°C° 0 mm 3 mps 747 mmHg 65%
    02:00 +26°C° 0 mm 3 mps 747 mmHg 66%
    03:00 +25°C° 0 mm 3 mps 746 mmHg 66%
    04:00 +25°C° 0 mm 3 mps 747 mmHg 66%
    05:00 +25°C° 0 mm 3 mps 747 mmHg 65%
    06:00 +24°C° 0 mm 3 mps 747 mmHg 64%
    07:00 +26°C° 0 mm 3 mps 747 mmHg 60%
    08:00 +28°C° 0 mm 3 mps 748 mmHg 55%
    09:00 +29°C° 0 mm 3 mps 748 mmHg 50%
    10:00 +31°C° 0 mm 3 mps 748 mmHg 48%
    11:00 +33°C° 0 mm 3 mps 748 mmHg 46%
    12:00 +35°C° 0 mm 3 mps 747 mmHg 43%
    13:00 +35°C° 0 mm 3 mps 747 mmHg 41%
    14:00 +36°C° 0 mm 3 mps 746 mmHg 38%
    15:00 +37°C° 0 mm 3 mps 746 mmHg 35%
    16:00 +36°C° 0 mm 3 mps 745 mmHg 38%
    17:00 +36°C° 0 mm 3 mps 745 mmHg 41%
    18:00 +35°C° 0 mm 4 mps 745 mmHg 43%
    19:00 +34°C° 0 mm 4 mps 745 mmHg 48%
    20:00 +33°C° 0 mm 4 mps 745 mmHg 52%
    21:00 +32°C° 0 mm 4 mps 745 mmHg 56%
    22:00 +30°C° 0 mm 4 mps 744 mmHg 58%
    23:00 +30°C° 0 mm 4 mps 744 mmHg 60%
    Show more